Find Shizuku

NORAD ID: 38337 Int'l Des: 2012-025 Owner: JAXA Country: J operational
LEOCIRCULARRETROGRADESSO

实时位置

正在加载3D地球...

关于 Shizuku

正在加载描述...

即将过境

Passes for default location (London). Set your location on the main map for personalized predictions.

高度历史

Loading altitude history...

两行轨道根数

1 38337U 12025A 26119.82525860 .00000564 00000-0 13519-3 0 9996
2 38337 98.1998 61.1219 0001317 94.3122 319.8418 14.57123856741999
Epoch: Apr 29, 2026 • Age: 12 hours

当前状态

高度 711.6 km
速度 7.51 km/s
星下点 58.48°N, 79.33°E
发射日期 May 17, 2012
运行时间 13.9 years
类型 other

技术详情

分类 Payload
质量 1991.00 kg
干质量 1841.00 kg
总质量 1991.00 kg
长度 5.10 m
直径 3.40 m
跨度 17.50 m
形状 Box +2 pan + dish
制造商 NECTF
平台类型 GCOM
阶段状态 In Orbit
所有者/国家 JAXA/J

Most Searched